contact:dominique.lefevre@mio.osupytheas.fr, maurice.libes@osupytheas.fr, didier.mallarino@osupytheas.fr
Project:EMSO http://www.emso-fr.org/EMSO-France
Depth: 2436.0 m
Title:EMSO Ligure Ouest : Data MII capteur CSTAR
DateTime,Latitude,Longitude,Instrument_Serial,Reference_Counts,Signal_Counts,Corrected_Signal_raw_counts,Calculated_Beam_c_inverse_meters,Internal_thermistor_counts
DateTime,Latitude,Longitude,Instrument_Serial,Reference_Counts,Signal_Counts,Corrected_Signal_raw_counts,Calculated_Beam_c_inverse_meters,Internal_thermistor_counts
2023-11-27T00:02:13,42.805,6.029,CST-1368DR,4100,4356,11259,01.309,553
2023-11-27T00:05:15,42.805,6.029,CST-1368DR,4100,4356,11259,01.309,553
2023-11-27T00:08:17,42.805,6.029,CST-1368DR,4100,4355,11256,01.310,553
2023-11-27T00:11:18,42.805,6.029,CST-1368DR,4100,4355,11255,01.310,553
2023-11-27T00:14:20,42.805,6.029,CST-1368DR,4100,4355,11256,01.310,553
2023-11-27T00:17:21,42.805,6.029,CST-1368DR,4100,4356,11257,01.309,553
2023-11-27T00:20:23,42.805,6.029,CST-1368DR,4100,4353,11251,01.311,553
2023-11-27T00:23:24,42.805,6.029,CST-1368DR,4100,4354,11253,01.311,553
2023-11-27T00:26:26,42.805,6.029,CST-1368DR,4100,4357,11261,01.308,553
2023-11-27T00:29:28,42.805,6.029,CST-1368DR,4100,4355,11256,01.310,553
2023-11-27T00:32:29,42.805,6.029,CST-1368DR,4100,4353,11250,01.312,553
2023-11-27T00:35:31,42.805,6.029,CST-1368DR,4100,4354,11254,01.310,553
2023-11-27T00:38:32,42.805,6.029,CST-1368DR,4100,4355,11256,01.310,553
2023-11-27T00:41:34,42.805,6.029,CST-1368DR,4100,4355,11256,01.310,553
2023-11-27T00:44:36,42.805,6.029,CST-1368DR,4100,4355,11256,01.310,553
2023-11-27T00:47:37,42.805,6.029,CST-1368DR,4100,4356,11258,01.309,553
2023-11-27T00:50:39,42.805,6.029,CST-1368DR,4100,4356,11258,01.309,553
2023-11-27T00:53:40,42.805,6.029,CST-1368DR,4100,4356,11257,01.309,553
2023-11-27T00:56:42,42.805,6.029,CST-1368DR,4100,4353,11251,01.311,553
2023-11-27T00:59:43,42.805,6.029,CST-1368DR,4099,4354,11256,01.310,553
2023-11-27T01:02:45,42.805,6.029,CST-1368DR,4099,4353,11252,01.311,553
2023-11-27T01:05:47,42.805,6.029,CST-1368DR,4099,4354,11256,01.310,553
2023-11-27T01:08:48,42.805,6.029,CST-1368DR,4099,4356,11259,01.309,553
2023-11-27T01:11:50,42.805,6.029,CST-1368DR,4100,4356,11257,01.309,553
2023-11-27T01:14:51,42.805,6.029,CST-1368DR,4100,4356,11257,01.309,553
2023-11-27T01:17:53,42.805,6.029,CST-1368DR,4100,4354,11253,01.311,553
2023-11-27T01:20:54,42.805,6.029,CST-1368DR,4100,4354,11252,01.311,553
2023-11-27T01:23:56,42.805,6.029,CST-1368DR,4099,4354,11256,01.310,553
2023-11-27T01:26:58,42.805,6.029,CST-1368DR,4100,4353,11251,01.311,553
2023-11-27T01:29:59,42.805,6.029,CST-1368DR,4099,4354,11254,01.310,553
2023-11-27T01:33:01,42.805,6.029,CST-1368DR,4099,4354,11254,01.310,553
2023-11-27T01:36:02,42.805,6.029,CST-1368DR,4100,4353,11249,01.312,553
2023-11-27T01:39:04,42.805,6.029,CST-1368DR,4100,4354,11252,01.311,553
2023-11-27T01:42:06,42.805,6.029,CST-1368DR,4099,4353,11254,01.310,553
2023-11-27T01:45:07,42.805,6.029,CST-1368DR,4100,4352,11248,01.312,553
2023-11-27T01:48:09,42.805,6.029,CST-1368DR,4099,4355,11257,01.309,553
2023-11-27T01:51:10,42.805,6.029,CST-1368DR,4099,4356,11260,01.308,553
2023-11-27T01:54:12,42.805,6.029,CST-1368DR,4099,4353,11252,01.311,553
2023-11-27T01:57:13,42.805,6.029,CST-1368DR,4100,4353,11251,01.311,553
2023-11-27T02:00:15,42.805,6.029,CST-1368DR,4099,4354,11255,01.310,553
2023-11-27T02:03:17,42.805,6.029,CST-1368DR,4100,4353,11250,01.312,553
2023-11-27T02:06:18,42.805,6.029,CST-1368DR,4100,4354,11252,01.311,553
2023-11-27T02:09:20,42.805,6.029,CST-1368DR,4099,4352,11250,01.312,553
2023-11-27T02:12:21,42.805,6.029,CST-1368DR,4100,4354,11253,01.311,553
2023-11-27T02:15:23,42.805,6.029,CST-1368DR,4100,4354,11254,01.310,553
2023-11-27T02:18:24,42.805,6.029,CST-1368DR,4100,4353,11249,01.312,553
2023-11-27T02:21:26,42.805,6.029,CST-1368DR,4099,4353,11252,01.311,553
2023-11-27T02:24:28,42.805,6.029,CST-1368DR,4099,4353,11254,01.310,553
2023-11-27T02:27:29,42.805,6.029,CST-1368DR,4099,4354,11256,01.310,553
2023-11-27T02:30:31,42.805,6.029,CST-1368DR,4100,4355,11254,01.310,553
2023-11-27T02:33:32,42.805,6.029,CST-1368DR,4099,4354,11256,01.310,553
2023-11-27T02:36:34,42.805,6.029,CST-1368DR,4099,4354,11255,01.310,553
2023-11-27T02:39:36,42.805,6.029,CST-1368DR,4100,4355,11254,01.310,553
2023-11-27T02:42:37,42.805,6.029,CST-1368DR,4100,4355,11256,01.310,553
2023-11-27T02:45:39,42.805,6.029,CST-1368DR,4099,4355,11258,01.309,553
2023-11-27T02:48:40,42.805,6.029,CST-1368DR,4099,4352,11250,01.312,553
2023-11-27T02:51:42,42.805,6.029,CST-1368DR,4099,4355,11259,01.309,553
2023-11-27T02:54:43,42.805,6.029,CST-1368DR,4099,4355,11258,01.309,553
2023-11-27T02:57:45,42.805,6.029,CST-1368DR,4099,4355,11259,01.309,553
2023-11-27T03:00:47,42.805,6.029,CST-1368DR,4099,4356,11260,01.308,553
2023-11-27T03:03:48,42.805,6.029,CST-1368DR,4100,4361,11272,01.304,553
2023-11-27T03:06:50,42.805,6.029,CST-1368DR,4099,4356,11260,01.308,553
2023-11-27T03:09:51,42.805,6.029,CST-1368DR,4099,4356,11261,01.308,553
2023-11-27T03:12:53,42.805,6.029,CST-1368DR,4099,4358,11267,01.306,553
2023-11-27T03:15:54,42.805,6.029,CST-1368DR,4100,4357,11260,01.308,552
2023-11-27T03:18:56,42.805,6.029,CST-1368DR,4099,4356,11261,01.308,553
2023-11-27T03:21:58,42.805,6.029,CST-1368DR,4099,4356,11260,01.308,553
2023-11-27T03:24:59,42.805,6.029,CST-1368DR,4099,4357,11263,01.307,553
2023-11-27T03:28:01,42.805,6.029,CST-1368DR,4099,4353,11252,01.311,553
2023-11-27T03:31:02,42.805,6.029,CST-1368DR,4099,4356,11261,01.308,553
2023-11-27T03:34:04,42.805,6.029,CST-1368DR,4099,4356,11261,01.308,553
2023-11-27T03:37:06,42.805,6.029,CST-1368DR,4100,4356,11258,01.309,553
2023-11-27T03:40:07,42.805,6.029,CST-1368DR,4099,4358,11265,01.306,553
2023-11-27T03:43:09,42.805,6.029,CST-1368DR,4099,4357,11264,01.307,553
2023-11-27T03:46:10,42.805,6.029,CST-1368DR,4099,4356,11261,01.308,553
2023-11-27T03:49:12,42.805,6.029,CST-1368DR,4099,4357,11263,01.307,553
2023-11-27T03:52:13,42.805,6.029,CST-1368DR,4099,4356,11261,01.308,553
2023-11-27T03:55:15,42.805,6.029,CST-1368DR,4099,4356,11261,01.308,553
2023-11-27T03:58:17,42.805,6.029,CST-1368DR,4099,4356,11259,01.309,553
2023-11-27T04:01:18,42.805,6.029,CST-1368DR,4100,4361,11271,01.304,553
2023-11-27T04:04:20,42.805,6.029,CST-1368DR,4099,4357,11263,01.307,553
2023-11-27T04:07:21,42.805,6.029,CST-1368DR,4099,4355,11258,01.309,553
2023-11-27T04:10:23,42.805,6.029,CST-1368DR,4099,4355,11259,01.309,553
2023-11-27T04:13:24,42.805,6.029,CST-1368DR,4099,4356,11261,01.308,553
2023-11-27T04:16:26,42.805,6.029,CST-1368DR,4099,4357,11263,01.307,553
2023-11-27T04:19:28,42.805,6.029,CST-1368DR,4099,4356,11261,01.308,553
2023-11-27T04:22:29,42.805,6.029,CST-1368DR,4099,4356,11260,01.308,553
2023-11-27T04:25:31,42.805,6.029,CST-1368DR,4099,4357,11263,01.307,553
2023-11-27T04:28:32,42.805,6.029,CST-1368DR,4099,4357,11263,01.307,553
2023-11-27T04:31:34,42.805,6.029,CST-1368DR,4099,4357,11263,01.307,553
2023-11-27T04:34:36,42.805,6.029,CST-1368DR,4099,4357,11263,01.307,553
2023-11-27T04:37:37,42.805,6.029,CST-1368DR,4099,4356,11260,01.308,553
2023-11-27T04:40:39,42.805,6.029,CST-1368DR,4099,4357,11264,01.307,553
2023-11-27T04:43:40,42.805,6.029,CST-1368DR,4099,4355,11257,01.309,553
2023-11-27T04:46:42,42.805,6.029,CST-1368DR,4099,4356,11260,01.308,553
2023-11-27T04:49:43,42.805,6.029,CST-1368DR,4099,4356,11261,01.308,553
2023-11-27T04:52:45,42.805,6.029,CST-1368DR,4099,4356,11261,01.308,553
2023-11-27T04:55:47,42.805,6.029,CST-1368DR,4099,4356,11259,01.309,553
2023-11-27T04:58:48,42.805,6.029,CST-1368DR,4099,4355,11258,01.309,553
2023-11-27T05:01:50,42.805,6.029,CST-1368DR,4099,4356,11260,01.308,553
2023-11-27T05:04:51,42.805,6.029,CST-1368DR,4099,4355,11258,01.309,553
2023-11-27T05:07:53,42.805,6.029,CST-1368DR,4099,4355,11257,01.309,553
2023-11-27T05:10:55,42.805,6.029,CST-1368DR,4099,4354,11256,01.310,553
2023-11-27T05:13:56,42.805,6.029,CST-1368DR,4099,4354,11256,01.310,553
2023-11-27T05:16:58,42.805,6.029,CST-1368DR,4099,4355,11258,01.309,553
2023-11-27T05:19:59,42.805,6.029,CST-1368DR,4099,4354,11255,01.310,553
2023-11-27T05:23:01,42.805,6.029,CST-1368DR,4099,4354,11255,01.310,553
2023-11-27T05:26:02,42.805,6.029,CST-1368DR,4099,4355,11258,01.309,553
2023-11-27T05:29:04,42.805,6.029,CST-1368DR,4099,4356,11261,01.308,553
2023-11-27T05:32:08,42.805,6.029,CST-1368DR,4099,4355,11258,01.309,553
2023-11-27T05:35:10,42.805,6.029,CST-1368DR,4099,4355,11258,01.309,553
2023-11-27T05:38:11,42.805,6.029,CST-1368DR,4099,4356,11260,01.308,553
2023-11-27T05:41:13,42.805,6.029,CST-1368DR,4099,4356,11261,01.308,553
2023-11-27T05:44:14,42.805,6.029,CST-1368DR,4099,4357,11263,01.307,553
2023-11-27T05:47:16,42.805,6.029,CST-1368DR,4099,4356,11260,01.308,553
2023-11-27T05:50:17,42.805,6.029,CST-1368DR,4099,4355,11257,01.309,553
2023-11-27T05:53:19,42.805,6.029,CST-1368DR,4099,4355,11257,01.309,553
2023-11-27T05:56:21,42.805,6.029,CST-1368DR,4099,4356,11261,01.308,553
2023-11-27T05:59:22,42.805,6.029,CST-1368DR,4099,4353,11252,01.311,553
2023-11-27T06:02:24,42.805,6.029,CST-1368DR,4099,4356,11259,01.309,553
2023-11-27T06:05:25,42.805,6.029,CST-1368DR,4099,4356,11259,01.309,553
2023-11-27T06:08:27,42.805,6.029,CST-1368DR,4099,4356,11261,01.308,553
2023-11-27T06:11:29,42.805,6.029,CST-1368DR,4099,4356,11259,01.309,553
2023-11-27T06:14:30,42.805,6.029,CST-1368DR,4099,4355,11258,01.309,553
2023-11-27T06:17:32,42.805,6.029,CST-1368DR,4099,4355,11258,01.309,552
2023-11-27T06:20:33,42.805,6.029,CST-1368DR,4099,4355,11257,01.309,553
2023-11-27T06:23:35,42.805,6.029,CST-1368DR,4099,4360,11272,01.304,553
2023-11-27T06:26:36,42.805,6.029,CST-1368DR,4099,4355,11259,01.309,553
2023-11-27T06:29:38,42.805,6.029,CST-1368DR,4098,4353,11256,01.310,553
2023-11-27T06:32:40,42.805,6.029,CST-1368DR,4098,4354,11257,01.309,552
2023-11-27T06:35:41,42.805,6.029,CST-1368DR,4098,4354,11258,01.309,553
2023-11-27T06:38:43,42.805,6.029,CST-1368DR,4098,4354,11259,01.309,552
2023-11-27T06:41:44,42.805,6.029,CST-1368DR,4098,4351,11251,01.311,552
2023-11-27T06:44:46,42.805,6.029,CST-1368DR,4098,4350,11248,01.312,552
2023-11-27T06:47:48,42.805,6.029,CST-1368DR,4098,4352,11254,01.310,553
2023-11-27T06:50:49,42.805,6.029,CST-1368DR,4099,4353,11252,01.311,553
2023-11-27T06:53:51,42.805,6.029,CST-1368DR,4099,4351,11247,01.313,553
2023-11-27T06:56:52,42.805,6.029,CST-1368DR,4099,4351,11248,01.312,553
2023-11-27T06:59:54,42.805,6.029,CST-1368DR,4099,4351,11248,01.312,553
2023-11-27T07:02:55,42.805,6.029,CST-1368DR,4099,4352,11250,01.312,553
2023-11-27T07:05:57,42.805,6.029,CST-1368DR,4098,4352,11252,01.311,553
2023-11-27T07:08:59,42.805,6.029,CST-1368DR,4098,4353,11254,01.310,553
2023-11-27T07:12:00,42.805,6.029,CST-1368DR,4098,4351,11250,01.312,553
2023-11-27T07:15:02,42.805,6.029,CST-1368DR,4099,4353,11252,01.311,553
2023-11-27T07:18:03,42.805,6.029,CST-1368DR,4099,4353,11252,01.311,553
2023-11-27T07:21:05,42.805,6.029,CST-1368DR,4099,4350,11246,01.313,553
2023-11-27T07:24:06,42.805,6.029,CST-1368DR,4099,4353,11252,01.311,553
2023-11-27T07:27:08,42.805,6.029,CST-1368DR,4099,4351,11247,01.313,553
2023-11-27T07:30:11,42.805,6.029,CST-1368DR,4099,4351,11247,01.313,553
2023-11-27T07:33:13,42.805,6.029,CST-1368DR,4099,4352,11249,01.312,553
2023-11-27T07:36:14,42.805,6.029,CST-1368DR,4099,4351,11248,01.312,553
2023-11-27T07:39:16,42.805,6.029,CST-1368DR,4099,4351,11248,01.312,553
2023-11-27T07:42:17,42.805,6.029,CST-1368DR,4099,4348,11239,01.316,553
2023-11-27T07:45:19,42.805,6.029,CST-1368DR,4099,4352,11250,01.312,553
2023-11-27T07:48:21,42.805,6.029,CST-1368DR,4099,4352,11251,01.311,553
2023-11-27T07:51:22,42.805,6.029,CST-1368DR,4099,4352,11251,01.311,553
2023-11-27T07:54:24,42.805,6.029,CST-1368DR,4099,4352,11249,01.312,553
2023-11-27T07:57:25,42.805,6.029,CST-1368DR,4099,4352,11251,01.311,553
2023-11-27T08:00:27,42.805,6.029,CST-1368DR,4099,4345,11232,01.318,553
2023-11-27T08:03:28,42.805,6.029,CST-1368DR,4099,4349,11242,01.315,553
2023-11-27T08:06:30,42.805,6.029,CST-1368DR,4099,4348,11239,01.316,553
2023-11-27T08:09:32,42.805,6.029,CST-1368DR,4099,4348,11239,01.316,553
2023-11-27T08:12:33,42.805,6.029,CST-1368DR,4099,4349,11243,01.314,553
2023-11-27T08:15:35,42.805,6.029,CST-1368DR,4099,4351,11247,01.313,553
2023-11-27T08:18:36,42.805,6.029,CST-1368DR,4099,4351,11247,01.313,553
2023-11-27T08:21:38,42.805,6.029,CST-1368DR,4099,4351,11248,01.312,553
2023-11-27T08:24:40,42.805,6.029,CST-1368DR,4099,4351,11248,01.312,553
2023-11-27T08:27:41,42.805,6.029,CST-1368DR,4099,4351,11247,01.313,553
2023-11-27T08:30:43,42.805,6.029,CST-1368DR,4099,4351,11248,01.312,553
2023-11-27T08:33:44,42.805,6.029,CST-1368DR,4099,4351,11247,01.313,553
2023-11-27T08:36:46,42.805,6.029,CST-1368DR,4099,4350,11246,01.313,552
2023-11-27T08:39:47,42.805,6.029,CST-1368DR,4099,4351,11247,01.313,553
2023-11-27T08:42:49,42.805,6.029,CST-1368DR,4099,4352,11250,01.312,553
2023-11-27T08:45:51,42.805,6.029,CST-1368DR,4099,4352,11250,01.312,553
2023-11-27T08:48:52,42.805,6.029,CST-1368DR,4099,4354,11256,01.310,553
2023-11-27T08:51:54,42.805,6.029,CST-1368DR,4099,4353,11254,01.310,553
2023-11-27T08:54:55,42.805,6.029,CST-1368DR,4099,4353,11254,01.310,553
2023-11-27T08:57:57,42.805,6.029,CST-1368DR,4099,4358,11266,01.306,553
2023-11-27T09:00:58,42.805,6.029,CST-1368DR,4099,4352,11251,01.311,553
2023-11-27T09:04:00,42.805,6.029,CST-1368DR,4099,4354,11255,01.310,553
2023-11-27T09:07:02,42.805,6.029,CST-1368DR,4099,4353,11254,01.310,553
2023-11-27T09:10:03,42.805,6.029,CST-1368DR,4099,4352,11250,01.312,553
2023-11-27T09:13:05,42.805,6.029,CST-1368DR,4099,4353,11252,01.311,553
2023-11-27T09:16:06,42.805,6.029,CST-1368DR,4099,4353,11254,01.310,553
2023-11-27T09:19:08,42.805,6.029,CST-1368DR,4099,4354,11254,01.310,553
2023-11-27T09:22:10,42.805,6.029,CST-1368DR,4099,4353,11252,01.311,553
2023-11-27T09:25:11,42.805,6.029,CST-1368DR,4099,4353,11254,01.310,553
2023-11-27T09:28:13,42.805,6.029,CST-1368DR,4099,4352,11250,01.312,553
2023-11-27T09:31:14,42.805,6.029,CST-1368DR,4099,4352,11250,01.312,553
2023-11-27T09:34:16,42.805,6.029,CST-1368DR,4099,4352,11250,01.312,553
2023-11-27T09:37:18,42.805,6.029,CST-1368DR,4099,4353,11254,01.310,553
2023-11-27T09:40:19,42.805,6.029,CST-1368DR,4099,4353,11252,01.311,553
2023-11-27T09:43:21,42.805,6.029,CST-1368DR,4099,4353,11252,01.311,553
2023-11-27T09:46:22,42.805,6.029,CST-1368DR,4099,4354,11255,01.310,552
2023-11-27T09:49:24,42.805,6.029,CST-1368DR,4099,4359,11268,01.305,553
2023-11-27T09:52:25,42.805,6.029,CST-1368DR,4099,4354,11254,01.310,553
2023-11-27T09:55:27,42.805,6.029,CST-1368DR,4099,4353,11252,01.311,553
2023-11-27T09:58:29,42.805,6.029,CST-1368DR,4099,4352,11251,01.311,553
2023-11-27T10:01:30,42.805,6.029,CST-1368DR,4099,4354,11256,01.310,553
2023-11-27T10:04:32,42.805,6.029,CST-1368DR,4099,4354,11256,01.310,553
2023-11-27T10:07:33,42.805,6.029,CST-1368DR,4099,4351,11247,01.313,553
2023-11-27T10:10:35,42.805,6.029,CST-1368DR,4099,4352,11249,01.312,553
2023-11-27T10:13:37,42.805,6.029,CST-1368DR,4099,4353,11252,01.311,553
2023-11-27T10:16:38,42.805,6.029,CST-1368DR,4099,4354,11256,01.310,553
2023-11-27T10:19:40,42.805,6.029,CST-1368DR,4099,4354,11254,01.310,553
2023-11-27T10:22:41,42.805,6.029,CST-1368DR,4099,4352,11251,01.311,553
2023-11-27T10:25:43,42.805,6.029,CST-1368DR,4099,4354,11256,01.310,553
2023-11-27T10:28:44,42.805,6.029,CST-1368DR,4099,4353,11252,01.311,553
2023-11-27T10:31:46,42.805,6.029,CST-1368DR,4099,4351,11247,01.313,553
2023-11-27T10:34:48,42.805,6.029,CST-1368DR,4099,4352,11251,01.311,553
2023-11-27T10:37:49,42.805,6.029,CST-1368DR,4099,4353,11252,01.311,553
2023-11-27T10:40:51,42.805,6.029,CST-1368DR,4099,4352,11250,01.312,553
2023-11-27T10:43:52,42.805,6.029,CST-1368DR,4099,4352,11250,01.312,553
2023-11-27T10:46:54,42.805,6.029,CST-1368DR,4099,4355,11257,01.309,553
2023-11-27T10:49:55,42.805,6.029,CST-1368DR,4099,4355,11257,01.309,553
2023-11-27T10:52:57,42.805,6.029,CST-1368DR,4099,4355,11259,01.309,553
2023-11-27T10:55:59,42.805,6.029,CST-1368DR,4099,4355,11258,01.309,553
2023-11-27T10:59:00,42.805,6.029,CST-1368DR,4099,4355,11258,01.309,553
2023-11-27T11:02:02,42.805,6.029,CST-1368DR,4099,4352,11250,01.312,553
2023-11-27T11:05:03,42.805,6.029,CST-1368DR,4099,4352,11250,01.312,553
2023-11-27T11:08:05,42.805,6.029,CST-1368DR,4099,4353,11252,01.311,553
2023-11-27T11:11:06,42.805,6.029,CST-1368DR,4099,4353,11252,01.311,553
2023-11-27T11:14:08,42.805,6.029,CST-1368DR,4099,4352,11250,01.312,553
2023-11-27T11:17:10,42.805,6.029,CST-1368DR,4099,4354,11255,01.310,553
2023-11-27T11:20:11,42.805,6.029,CST-1368DR,4099,4354,11256,01.310,553
2023-11-27T11:23:13,42.805,6.029,CST-1368DR,4099,4354,11254,01.310,553
2023-11-27T11:26:14,42.805,6.029,CST-1368DR,4099,4354,11256,01.310,553
2023-11-27T11:29:16,42.805,6.029,CST-1368DR,4099,4354,11254,01.310,553
2023-11-27T11:32:18,42.805,6.029,CST-1368DR,4099,4354,11256,01.310,553
2023-11-27T11:35:19,42.805,6.029,CST-1368DR,4099,4355,11257,01.309,553
2023-11-27T11:38:21,42.805,6.029,CST-1368DR,4099,4354,11256,01.310,553
2023-11-27T11:41:22,42.805,6.029,CST-1368DR,4099,4354,11255,01.310,553
2023-11-27T11:44:24,42.805,6.029,CST-1368DR,4099,4360,11271,01.304,553
2023-11-27T11:47:26,42.805,6.029,CST-1368DR,4099,4354,11254,01.310,553
2023-11-27T11:50:27,42.805,6.029,CST-1368DR,4099,4353,11254,01.310,553
2023-11-27T11:53:29,42.805,6.029,CST-1368DR,4099,4353,11252,01.311,553
2023-11-27T11:56:30,42.805,6.029,CST-1368DR,4099,4353,11252,01.311,553
2023-11-27T11:59:32,42.805,6.029,CST-1368DR,4099,4354,11256,01.310,553
2023-11-27T12:02:33,42.805,6.029,CST-1368DR,4099,4355,11257,01.309,553
2023-11-27T12:05:35,42.805,6.029,CST-1368DR,4099,4354,11254,01.310,553
2023-11-27T12:08:37,42.805,6.029,CST-1368DR,4099,4354,11256,01.310,553
2023-11-27T12:11:38,42.805,6.029,CST-1368DR,4099,4358,11266,01.306,553
2023-11-27T12:14:40,42.805,6.029,CST-1368DR,4099,4354,11256,01.310,553
2023-11-27T12:17:41,42.805,6.029,CST-1368DR,4099,4354,11254,01.310,553
2023-11-27T12:20:43,42.805,6.029,CST-1368DR,4099,4355,11257,01.309,553
2023-11-27T12:23:45,42.805,6.029,CST-1368DR,4099,4355,11257,01.309,553
2023-11-27T12:26:46,42.805,6.029,CST-1368DR,4099,4353,11252,01.311,553
2023-11-27T12:29:48,42.805,6.029,CST-1368DR,4099,4354,11255,01.310,553
2023-11-27T12:32:49,42.805,6.029,CST-1368DR,4099,4354,11256,01.310,553
2023-11-27T12:35:51,42.805,6.029,CST-1368DR,4099,4352,11250,01.312,553
2023-11-27T12:38:52,42.805,6.029,CST-1368DR,4099,4353,11252,01.311,553
2023-11-27T12:41:54,42.805,6.029,CST-1368DR,4099,4353,11254,01.310,553
2023-11-27T12:44:56,42.805,6.029,CST-1368DR,4099,4354,11255,01.310,553
2023-11-27T12:47:57,42.805,6.029,CST-1368DR,4099,4352,11250,01.312,553
2023-11-27T12:50:59,42.805,6.029,CST-1368DR,4099,4354,11255,01.310,552
2023-11-27T12:54:00,42.805,6.029,CST-1368DR,4099,4354,11254,01.310,553
2023-11-27T12:57:02,42.805,6.029,CST-1368DR,4099,4354,11254,01.310,553
2023-11-27T13:00:03,42.805,6.029,CST-1368DR,4099,4353,11254,01.310,553
2023-11-27T13:03:05,42.805,6.029,CST-1368DR,4099,4353,11254,01.310,553
2023-11-27T13:06:07,42.805,6.029,CST-1368DR,4099,4353,11254,01.310,553
2023-11-27T13:09:08,42.805,6.029,CST-1368DR,4099,4352,11249,01.312,553
2023-11-27T13:12:10,42.805,6.029,CST-1368DR,4099,4351,11248,01.312,553
2023-11-27T13:15:11,42.805,6.029,CST-1368DR,4099,4353,11254,01.310,553
2023-11-27T13:18:13,42.805,6.029,CST-1368DR,4099,4353,11252,01.311,553
2023-11-27T13:21:15,42.805,6.029,CST-1368DR,4099,4353,11252,01.311,553
2023-11-27T13:24:16,42.805,6.029,CST-1368DR,4099,4352,11250,01.312,553
2023-11-27T13:27:18,42.805,6.029,CST-1368DR,4099,4354,11255,01.310,553
2023-11-27T13:30:22,42.805,6.029,CST-1368DR,4099,4354,11254,01.310,553
2023-11-27T13:33:24,42.805,6.029,CST-1368DR,4099,4352,11249,01.312,553
2023-11-27T13:36:25,42.805,6.029,CST-1368DR,4099,4353,11254,01.310,553
2023-11-27T13:39:27,42.805,6.029,CST-1368DR,4099,4355,11258,01.309,553
2023-11-27T13:42:28,42.805,6.029,CST-1368DR,4099,4354,11256,01.310,553
2023-11-27T13:45:30,42.805,6.029,CST-1368DR,4099,4352,11250,01.312,553
2023-11-27T13:48:31,42.805,6.029,CST-1368DR,4099,4354,11254,01.310,553
2023-11-27T13:51:33,42.805,6.029,CST-1368DR,4099,4354,11255,01.310,553
2023-11-27T13:54:35,42.805,6.029,CST-1368DR,4099,4354,11256,01.310,553
2023-11-27T13:57:36,42.805,6.029,CST-1368DR,4099,4352,11249,01.312,553
2023-11-27T14:00:38,42.805,6.029,CST-1368DR,4099,4352,11251,01.311,553
2023-11-27T14:03:39,42.805,6.029,CST-1368DR,4099,4353,11254,01.310,553
2023-11-27T14:06:41,42.805,6.029,CST-1368DR,4099,4353,11254,01.310,553
2023-11-27T14:09:42,42.805,6.029,CST-1368DR,4099,4352,11250,01.312,552
2023-11-27T14:12:44,42.805,6.029,CST-1368DR,4099,4353,11252,01.311,553
2023-11-27T14:15:46,42.805,6.029,CST-1368DR,4099,4353,11252,01.311,553
2023-11-27T14:18:47,42.805,6.029,CST-1368DR,4099,4353,11254,01.310,553
2023-11-27T14:21:49,42.805,6.029,CST-1368DR,4099,4352,11249,01.312,553
2023-11-27T14:24:50,42.805,6.029,CST-1368DR,4099,4352,11250,01.312,553
2023-11-27T14:27:52,42.805,6.029,CST-1368DR,4099,4352,11249,01.312,553
2023-11-27T14:30:54,42.805,6.029,CST-1368DR,4099,4351,11247,01.313,553
2023-11-27T14:33:55,42.805,6.029,CST-1368DR,4099,4353,11252,01.311,553
2023-11-27T14:36:57,42.805,6.029,CST-1368DR,4099,4351,11248,01.312,553
2023-11-27T14:39:58,42.805,6.029,CST-1368DR,4099,4352,11249,01.312,553
2023-11-27T14:43:00,42.805,6.029,CST-1368DR,4099,4350,11244,01.314,553
2023-11-27T14:46:01,42.805,6.029,CST-1368DR,4099,4350,11246,01.313,553
2023-11-27T14:49:03,42.805,6.029,CST-1368DR,4099,4350,11245,01.313,553
2023-11-27T14:52:05,42.805,6.029,CST-1368DR,4099,4353,11252,01.311,552
2023-11-27T14:55:06,42.805,6.029,CST-1368DR,4099,4350,11245,01.313,553
2023-11-27T14:58:08,42.805,6.029,CST-1368DR,4099,4351,11247,01.313,553
2023-11-27T15:01:09,42.805,6.029,CST-1368DR,4099,4351,11247,01.313,553
2023-11-27T15:04:11,42.805,6.029,CST-1368DR,4099,4349,11242,01.315,553
2023-11-27T15:07:12,42.805,6.029,CST-1368DR,4099,4351,11248,01.312,553
2023-11-27T15:10:14,42.805,6.029,CST-1368DR,4099,4351,11248,01.312,553
2023-11-27T15:13:16,42.805,6.029,CST-1368DR,4099,4351,11248,01.312,553
2023-11-27T15:16:17,42.805,6.029,CST-1368DR,4099,4351,11247,01.313,553
2023-11-27T15:19:19,42.805,6.029,CST-1368DR,4099,4351,11247,01.313,553
2023-11-27T15:22:20,42.805,6.029,CST-1368DR,4099,4350,11245,01.313,553
2023-11-27T15:25:22,42.805,6.029,CST-1368DR,4099,4349,11242,01.315,553
2023-11-27T15:28:24,42.805,6.029,CST-1368DR,4099,4351,11248,01.312,553
2023-11-27T15:31:25,42.805,6.029,CST-1368DR,4099,4351,11247,01.313,553
2023-11-27T15:34:27,42.805,6.029,CST-1368DR,4099,4352,11249,01.312,553
2023-11-27T15:37:28,42.805,6.029,CST-1368DR,4099,4349,11243,01.314,553
2023-11-27T15:40:30,42.805,6.029,CST-1368DR,4099,4350,11246,01.313,553
2023-11-27T15:43:32,42.805,6.029,CST-1368DR,4099,4351,11247,01.313,552
2023-11-27T15:46:33,42.805,6.029,CST-1368DR,4099,4352,11250,01.312,553
2023-11-27T15:49:35,42.805,6.029,CST-1368DR,4099,4351,11247,01.313,553
2023-11-27T15:52:36,42.805,6.029,CST-1368DR,4099,4351,11247,01.313,553
2023-11-27T15:55:38,42.805,6.029,CST-1368DR,4099,4351,11248,01.312,553
2023-11-27T15:58:39,42.805,6.029,CST-1368DR,4099,4351,11247,01.313,553
2023-11-27T16:01:41,42.805,6.029,CST-1368DR,4099,4350,11245,01.313,553
2023-11-27T16:04:43,42.805,6.029,CST-1368DR,4099,4352,11249,01.312,553
2023-11-27T16:07:44,42.805,6.029,CST-1368DR,4099,4352,11249,01.312,553
2023-11-27T16:10:46,42.805,6.029,CST-1368DR,4099,4352,11250,01.312,553
2023-11-27T16:13:47,42.805,6.029,CST-1368DR,4099,4352,11250,01.312,553
2023-11-27T16:16:49,42.805,6.029,CST-1368DR,4099,4352,11249,01.312,553
2023-11-27T16:19:50,42.805,6.029,CST-1368DR,4099,4353,11254,01.310,553
2023-11-27T16:22:52,42.805,6.029,CST-1368DR,4099,4352,11250,01.312,553
2023-11-27T16:25:54,42.805,6.029,CST-1368DR,4099,4352,11251,01.311,553
2023-11-27T16:28:55,42.805,6.029,CST-1368DR,4099,4350,11246,01.313,553
2023-11-27T16:31:57,42.805,6.029,CST-1368DR,4099,4350,11246,01.313,553
2023-11-27T16:34:58,42.805,6.029,CST-1368DR,4099,4352,11250,01.312,552
2023-11-27T16:38:00,42.805,6.029,CST-1368DR,4099,4352,11250,01.312,553